Showing default

COSMOS 2249, 22650

Orbit data source: Space-Track

COSMOS 2249, 22650 is a payload satellite owned by VKS (CIS) in LEO that was launched on Tue, 11 May 1993 UTC via a TSIKLON-3 launch vehicle from the Plesetsk Missile And Space Complex (PKMTR). Payload-class satellites include a variety of spacecraft equipped with specific instruments for various scientific and technological missions. These include communications satellites like Starlink; space stations such as the ISS; scientific satellites like the Hubble; Earth observation satellites from companies like Planet Labs, Umbra, and HawkEye 360; GPS; miniature CubeSats for education and research; and military/defense satellites.

Loading next visibility...
Identifier
22650, 1993-030E
Orbit
LEO
Country
Flag of CISCIS
Related business
Manufacturer
NPO PM
Mission
Defense Communications
Bus & Motor
STRELA-3, Unknown motor
Mass
225 kg wet, 225 kg dry
Launch date (UTC)
1993-05-11 (33 years ago)
Launch vehicle
TSIKLON-3
Launch site
Plesetsk Missile And Space Complex (PKMTR)
Object type
Payload
Rocket body
Debris
Shape & HBR
Cyl, 0.8 m
Radar Cross Section
1.257 m², Medium (>0.1 m² and < 1m²)

Expand to show TLE details & history
Last TLE update: 6 hours ago

TLE from 6 hours ago
0 COSMOS 2249
1 22650U 93030E   26127.59366119  .00000023  00000-0  67231-4 0  9996
2 22650  82.5879 349.3570 0008100  36.2481 351.9190 12.63186233520909
Epoch: 2026-05-07T14:14Z
TLE epoch observation values (Epoch: 2026-05-07T14:14:52.326Z)
Latitude
27.93695°
Longitude
-85.86234°
Altitude
1,406.869 km
Speed
7.162 km/s
True Right ascension
23h 33m 10s
True Declination
27° 48' 24"
Sunlit
Object was in daylight at epoch
Visualization orbit readout
Latitude
Unknown
Longitude
Unknown
Altitude
Unknown
Speed
Unknown
Apparent Right ascension
Unknown
Apparent Declination
Unknown
Sunlit
N/A
Visualization observer readout
Local Sidereal Time
04:20:05
Azimuth
Unknown
Elevation
Unknown
Doppler factor
Unknown
Orbital elements
Apogee altitude
1,413.446 km
Perigee altitude
1,400.834 km
Semi-major axis
7,785.277 km
Eccentricity
0.00081
Inclination
82.5879°
RAAN
349.357°
Arg. of periapsis
36.2481°
True anomaly
351.90594°
Mean anomaly
351.919°
Eccentric anomaly
351.91247°
Mean motion
3.1596 °/min
Orbital period
113.94 mins
BSTAR
0.000067231
Loading maneuver chart data...
Computing Atmospheric mass density...
Loading historical data...
Loading historical data...
Loading historical data...
Loading historical data...
Loading historical data...
Loading historical data...
Loading historical data...

Documentation

Showing up to 5 results
|